Theta_e
310 310 310 310 310 310 310 310 310 310 310 310 310 310 310 310 310 310 310 310 310 310 310 310 310 310 311 312 312 313 314 314 315 316 316 316 316 316 316 316 316 316 316 317 317 317 316 316 316 315 316 316 317 318 317 319 321 321 324 322 322 328 328 329 332 323 318 323 321 316 317 317 318 318 316 317 317 316 316 316 318 318 317 317 318 317 317 317
310 310 310 310 310 310 310 310 311 311 311 311 311 311 311 310 311 311 311 311 311 311 311 311 311 310 310 310 311 312 313 313 314 314 315 316 316 316 316 316 316 316 316 317 317 318 318 318 317 317 316 317 317 318 319 320 320 323 326 323 325 331 325 322 324 319 317 318 317 317 317 316 317 317 316 317 317 316 316 316 316 317 317 317 318 317 317 317
310 310 310 310 310 310 310 311 311 311 311 311 311 312 312 311 312 312 312 312 312 312 312 312 312 312 312 311 311 310 311 312 312 314 316 317 317 317 317 316 316 316 316 317 317 317 319 318 318 317 316 317 318 319 320 320 321 321 322 324 331 327 319 318 319 318 318 317 316 316 316 315 316 316 315 316 316 315 316 316 315 315 317 317 317 317 317 317
310 310 310 310 310 310 310 311 311 311 312 312 312 312 312 312 312 312 313 313 313 314 314 314 313 313 313 313 313 311 311 311 313 317 318 318 317 316 316 317 316 315 315 317 317 317 318 318 318 317 316 316 317 319 320 320 322 320 320 325 326 318 318 320 318 319 318 316 316 316 315 314 316 316 315 315 316 316 315 315 315 316 317 317 317 317 316 316
309 310 310 310 310 310 311 311 311 312 312 312 312 312 313 313 313 313 313 314 314 314 314 314 315 314 314 314 313 313 311 312 318 320 318 317 315 313 315 317 316 316 315 316 317 317 317 318 318 317 316 316 316 318 320 319 320 320 319 321 319 315 318 319 318 319 318 317 316 315 315 316 316 315 315 315 316 317 315 315 317 316 317 317 317 316 316 316
309 310 310 310 310 310 311 311 311 312 312 312 313 313 313 313 313 313 313 313 314 314 314 314 315 315 315 315 314 314 312 313 317 317 314 314 313 314 316 316 316 317 316 315 316 317 317 317 317 317 316 315 316 318 319 319 319 321 320 318 317 317 316 318 319 319 318 317 315 315 316 316 315 315 315 315 315 316 316 316 316 316 317 316 317 316 316 316
309 310 310 310 310 310 310 311 311 312 312 312 313 313 313 313 313 313 313 313 313 313 314 314 314 315 315 315 314 313 313 314 316 316 316 316 315 316 317 317 316 316 316 315 314 316 317 317 317 317 316 316 316 317 317 317 317 321 322 317 318 318 316 318 319 318 317 316 315 315 315 314 315 316 315 314 316 317 316 316 316 316 316 316 316 316 316 316
310 310 310 310 310 310 310 311 311 311 312 312 312 313 313 313 313 314 313 313 313 314 314 314 314 314 314 315 314 313 313 315 317 318 317 316 316 315 315 317 316 316 316 315 314 315 317 316 317 317 317 317 317 317 317 316 317 319 321 318 317 318 317 318 317 316 316 315 315 315 313 313 315 315 313 314 317 317 315 316 315 315 316 315 316 316 316 316
310 310 310 310 310 310 310 310 311 311 311 311 312 312 312 312 312 313 313 313 313 313 314 314 314 314 315 314 313 314 315 315 317 318 316 315 315 315 315 315 315 316 315 315 314 314 315 316 317 317 317 317 317 316 316 317 319 318 318 317 316 316 316 316 315 316 316 315 315 314 313 313 314 314 313 315 317 317 316 316 316 315 315 315 315 315 315 315
311 312 312 312 312 311 312 311 311 311 311 311 312 312 312 312 312 312 313 313 313 313 314 314 314 314 314 314 313 314 315 315 316 316 315 315 315 315 315 314 314 314 315 315 314 313 315 315 316 317 317 317 316 316 315 317 319 316 315 315 314 314 315 315 314 315 315 314 314 314 315 314 313 314 314 317 317 316 316 315 316 315 315 315 315 315 315 315
312 312 312 312 312 313 313 313 313 313 313 313 313 313 313 313 313 314 314 314 314 314 314 314 314 314 314 314 313 314 315 315 316 315 315 315 315 315 315 315 314 313 314 314 314 314 314 314 316 317 317 317 316 315 315 315 316 315 314 315 314 313 314 314 313 314 314 314 314 314 314 313 312 313 314 317 317 315 315 315 315 315 315 315 315 315 315 315
311 311 311 311 311 311 312 312 313 313 314 314 314 315 315 315 315 315 315 315 315 314 314 314 314 314 314 313 313 314 315 315 315 315 315 315 315 315 314 315 314 313 314 314 314 314 313 314 315 316 317 316 315 315 315 315 314 314 314 316 316 314 314 314 313 313 313 314 314 313 315 316 314 314 316 317 317 315 315 315 315 315 316 316 316 315 315 315
313 313 313 313 313 312 311 311 311 311 311 312 312 313 313 313 313 314 314 314 314 313 313 313 313 313 312 313 314 315 315 315 315 315 315 316 315 315 315 315 315 314 314 314 315 313 313 314 314 315 316 315 315 315 314 313 314 315 314 314 316 315 316 314 313 314 313 313 313 313 316 319 317 314 316 318 318 315 314 315 316 317 317 316 316 315 316 315
315 315 315 316 315 315 315 314 315 314 314 313 312 311 311 311 311 312 312 312 312 312 312 312 311 311 311 313 314 314 315 315 315 315 316 315 315 315 315 315 315 315 314 314 315 314 313 314 314 315 315 315 316 314 315 315 315 316 313 314 316 316 317 315 312 312 314 313 312 314 316 318 317 315 316 318 317 314 313 315 317 318 317 317 316 316 316 316
315 315 316 316 317 317 317 317 318 319 320 319 318 316 315 314 313 312 312 312 312 312 312 311 310 310 311 312 313 314 315 315 316 316 316 316 316 316 315 315 315 314 314 314 314 313 313 314 315 315 314 315 314 314 318 320 321 319 314 316 318 316 316 315 312 310 314 314 311 314 318 316 316 316 316 317 315 314 313 314 317 317 318 317 317 316 316 316
313 313 314 315 315 316 317 317 319 320 321 322 322 321 321 319 318 317 316 315 313 313 312 310 310 310 312 313 314 315 316 316 316 316 316 316 316 316 316 315 315 314 314 313 313 312 312 313 314 314 314 314 315 317 319 320 323 322 316 316 319 317 315 316 315 309 311 314 311 313 318 317 317 316 316 317 315 314 312 313 316 316 317 317 317 317 317 316
310 310 311 311 311 312 313 313 315 316 317 318 318 319 318 318 319 318 318 317 315 314 311 311 313 312 313 314 314 315 316 316 316 316 316 316 316 316 316 315 314 313 313 313 313 312 312 312 313 315 314 314 316 319 319 317 319 319 315 316 318 317 314 316 318 312 309 314 314 313 314 315 316 316 315 316 315 313 312 313 315 316 316 316 316 316 316 316
310 310 310 310 310 310 310 310 310 311 311 312 312 313 313 313 314 314 315 315 314 312 310 313 315 313 314 315 314 315 316 316 316 316 316 316 316 316 315 314 314 313 313 312 312 312 312 312 313 316 316 315 315 316 317 317 316 316 316 318 318 317 315 315 317 314 312 314 315 314 313 313 314 314 313 314 314 312 311 313 314 314 315 315 316 316 316 316
312 312 312 312 312 311 311 311 310 310 310 310 310 310 310 311 311 312 314 314 314 313 313 314 314 313 315 316 315 315 316 316 316 316 316 316 316 315 315 314 314 313 312 312 313 312 312 313 315 317 316 315 314 314 315 315 314 315 315 316 317 317 314 314 314 313 313 314 314 314 313 313 313 312 312 313 313 312 311 312 312 312 313 314 314 315 316 316
316 316 316 316 315 315 315 314 312 311 310 310 310 310 310 312 313 314 314 313 314 314 314 313 313 313 314 314 314 315 315 315 316 316 316 316 315 315 314 313 314 313 312 316 318 312 312 316 317 317 315 314 314 313 314 314 314 313 313 314 315 315 313 313 313 312 311 313 315 315 314 313 313 313 313 312 313 312 311 311 311 311 312 312 313 314 315 316
319 319 319 319 319 319 318 317 316 313 311 310 310 309 310 312 313 313 313 312 313 313 313 313 313 313 313 314 314 314 315 315 316 316 316 316 315 315 315 314 314 315 313 314 316 312 312 315 317 316 315 314 314 314 313 313 313 313 314 314 313 313 313 312 313 313 311 312 314 314 314 313 313 313 312 312 313 312 311 311 311 312 312 312 313 314 315 316
320 321 321 321 321 321 320 319 316 314 314 311 308 309 309 310 311 310 310 311 312 311 312 312 311 312 312 313 313 313 315 315 315 316 316 315 314 314 314 314 315 316 314 312 314 314 314 314 314 313 313 313 314 314 314 313 313 314 314 314 314 313 313 312 313 314 312 312 316 316 314 313 313 313 312 312 312 312 312 312 312 313 312 312 313 314 315 316
319 320 321 322 322 322 322 320 317 317 319 314 310 310 309 309 309 308 309 310 313 312 311 312 311 311 311 311 312 313 313 314 314 315 316 315 313 313 312 313 315 316 316 315 315 316 317 316 313 311 311 313 314 314 314 313 312 314 314 314 314 313 313 314 315 317 314 313 317 316 313 311 312 312 311 311 310 311 312 312 312 312 312 312 313 314 315 315
318 318 320 320 321 322 322 321 320 321 321 315 311 310 309 309 309 309 310 311 313 313 313 314 312 311 312 312 311 312 312 313 313 313 315 314 313 312 311 312 314 315 315 315 315 315 316 315 312 312 312 314 315 314 314 315 314 314 315 314 314 313 314 313 314 317 315 313 314 314 312 312 313 312 312 312 311 311 311 311 312 312 312 313 313 314 315 316
320 319 319 319 320 321 320 320 321 323 321 316 315 311 309 309 309 309 310 311 315 315 314 314 313 312 313 312 312 312 312 312 313 313 314 314 314 312 311 311 313 314 314 313 314 313 313 312 312 314 316 315 315 315 316 317 315 314 315 315 314 314 314 314 315 315 314 316 316 315 315 316 317 316 313 313 313 313 311 311 311 311 312 312 313 315 316 317
323 322 320 319 319 319 320 321 321 323 321 319 319 313 309 310 309 309 310 313 317 316 314 314 313 313 313 311 311 311 312 313 312 313 313 314 314 313 312 312 312 313 313 313 312 312 313 312 312 317 319 318 316 316 318 317 314 314 318 319 316 314 314 315 315 315 318 320 316 315 317 316 317 318 317 316 316 314 313 313 311 310 311 312 313 316 317 317
325 324 323 322 321 320 320 321 321 323 323 322 321 315 310 310 309 310 312 316 319 316 315 315 312 313 313 311 312 312 315 316 313 313 313 313 313 313 313 312 312 312 311 312 313 314 314 312 314 316 317 319 317 316 317 316 315 316 319 324 322 318 317 317 317 317 319 318 315 316 318 317 316 316 318 318 317 315 315 315 313 310 310 311 314 316 317 317
326 325 324 324 323 322 321 321 321 322 323 323 322 318 312 310 310 310 313 319 321 317 316 314 312 313 313 311 312 311 312 313 313 314 312 312 313 312 313 312 312 314 311 312 315 315 315 315 317 316 315 316 316 315 316 315 315 317 318 320 320 320 319 318 318 320 319 316 315 317 317 317 316 315 317 316 315 316 315 315 315 312 311 312 315 316 316 317
326 326 326 325 324 324 323 323 322 322 323 322 323 321 312 311 311 311 315 320 318 315 315 314 313 313 312 311 312 310 310 310 311 313 311 312 313 311 312 311 311 313 311 311 314 313 314 316 314 315 317 315 315 317 318 317 316 316 317 318 321 324 323 320 317 319 321 318 316 317 316 317 317 316 317 314 314 316 314 314 314 312 312 313 315 316 316 317
326 326 326 325 324 325 323 324 323 322 322 322 324 321 311 311 312 313 320 321 317 315 313 312 313 312 311 313 313 311 310 310 309 311 311 311 312 310 311 311 310 315 316 313 314 313 311 310 310 313 315 313 316 315 312 314 314 312 316 320 323 324 324 324 323 320 319 318 317 319 318 316 317 317 317 315 315 315 313 313 314 312 312 312 314 316 316 317
325 326 326 325 325 324 324 324 324 323 322 321 324 319 311 313 315 318 324 321 318 318 312 312 313 312 313 315 315 313 311 310 309 311 313 311 312 310 310 311 311 317 320 315 314 314 310 310 312 314 311 311 315 313 308 309 310 312 320 322 321 323 323 324 324 319 316 317 318 320 318 315 316 317 316 316 317 316 314 313 316 315 312 312 315 317 316 317
323 325 325 326 325 324 324 324 323 323 322 322 323 319 315 318 318 320 324 321 322 321 315 316 315 313 315 313 315 317 313 312 309 311 315 313 314 313 312 314 315 317 320 318 317 317 315 313 313 313 311 311 315 316 315 314 312 315 320 319 318 321 320 320 322 319 317 318 317 316 315 314 315 316 316 315 318 320 315 312 313 315 312 313 316 317 317 318
321 322 323 325 325 325 324 324 323 323 322 322 321 317 316 321 323 322 322 322 324 320 315 318 315 315 316 314 319 320 314 314 312 310 313 312 313 315 313 315 316 315 317 319 318 320 320 316 312 311 312 313 314 316 317 317 315 314 317 318 318 319 318 319 322 320 317 318 317 313 314 315 316 319 318 315 315 316 313 310 311 311 312 314 316 317 316 317
321 321 323 324 324 324 324 323 323 322 322 321 319 317 318 322 324 323 322 323 323 318 316 318 316 316 315 315 323 320 313 317 316 311 312 312 312 316 316 314 313 314 316 315 317 320 320 317 315 315 315 314 313 314 316 320 317 313 316 319 317 320 323 322 324 321 317 321 320 313 315 319 316 318 321 317 313 311 310 311 311 310 311 314 315 316 316 317
320 320 321 321 322 322 323 323 323 321 321 319 317 318 320 323 323 323 324 324 322 319 318 317 316 317 317 318 323 320 313 317 317 312 314 314 314 319 321 316 311 313 315 314 318 318 316 318 318 313 313 313 313 313 316 320 318 313 317 319 314 319 324 319 319 320 316 319 320 314 317 321 317 315 318 318 315 312 310 310 310 309 311 313 314 315 316 316
318 318 318 319 320 321 322 323 323 321 319 317 316 318 320 323 324 323 323 320 317 318 319 319 318 319 321 322 323 321 314 314 315 314 314 314 316 318 319 317 312 311 312 314 319 319 315 320 319 311 310 312 312 312 313 315 316 314 315 316 314 317 319 315 318 320 316 315 317 316 318 318 317 316 315 314 315 314 312 313 312 311 312 312 312 314 315 316
316 317 317 318 318 320 321 322 322 321 317 316 318 319 319 320 322 323 320 316 315 318 319 320 319 320 322 322 323 322 318 315 315 315 316 316 316 316 317 317 312 310 311 314 319 321 316 318 319 315 315 312 306 308 311 310 311 315 316 315 314 315 317 316 319 321 318 316 316 317 316 314 315 318 315 314 315 315 317 318 314 311 310 309 310 313 314 314
315 316 316 317 316 318 320 320 321 319 315 315 318 320 320 319 318 318 318 315 316 319 319 321 322 321 322 322 322 321 318 318 316 315 318 317 316 316 317 317 313 310 310 310 315 319 316 315 317 317 317 312 306 309 314 309 307 312 316 314 314 317 318 317 317 318 317 316 316 317 316 314 314 316 315 315 317 316 318 316 314 315 311 307 310 314 315 314
313 314 314 316 316 316 317 319 320 317 315 316 318 318 319 319 316 315 316 315 316 318 319 322 323 322 322 321 321 320 317 317 318 318 320 319 318 317 315 315 314 311 310 310 312 316 316 315 317 317 314 312 310 312 316 315 310 310 311 312 313 315 317 318 318 318 317 316 317 317 316 316 317 318 317 316 317 317 317 316 318 318 310 306 310 313 314 315
311 312 314 316 317 317 318 318 318 316 315 317 318 317 317 317 315 314 315 315 316 317 319 320 321 320 321 320 319 320 318 316 317 318 319 319 319 317 314 314 314 312 311 312 313 315 316 316 315 316 315 313 313 314 316 317 315 313 312 314 313 313 316 316 315 317 316 315 315 316 316 315 316 319 318 316 318 317 314 315 319 316 309 309 312 312 313 314
310 312 314 315 317 318 318 317 315 314 316 317 317 316 316 316 315 314 314 315 316 316 316 318 320 319 319 319 318 318 318 317 317 318 317 317 318 318 316 313 312 314 315 316 316 314 315 316 315 315 315 314 314 316 316 316 316 314 313 313 313 313 315 315 315 316 315 314 315 315 315 315 314 316 316 314 315 314 311 312 315 313 310 312 314 313 314 314
310 312 313 315 316 317 317 315 313 313 315 316 316 317 315 315 315 315 314 313 315 315 314 316 318 318 318 318 318 318 318 319 319 318 316 317 317 318 316 312 312 314 315 317 318 315 313 314 314 314 315 315 315 315 314 313 313 313 313 313 314 313 313 315 315 316 315 315 315 315 315 315 314 314 314 313 313 311 310 310 310 309 310 312 313 312 314 314
310 312 313 314 315 316 316 315 314 313 313 314 314 315 315 314 315 315 314 313 314 315 315 315 316 316 316 316 316 317 318 318 318 318 318 317 316 316 315 314 313 314 316 318 319 317 313 314 315 316 316 317 317 316 314 311 309 311 313 313 313 313 313 314 314 314 315 316 316 316 315 315 316 316 314 313 313 311 309 309 309 309 310 311 311 312 313 313
308 310 311 313 314 314 316 316 316 314 313 312 313 313 313 313 313 314 314 314 314 315 316 316 315 315 316 316 316 317 317 317 317 317 317 317 317 315 314 314 315 315 317 319 320 318 316 316 317 316 317 318 318 318 316 313 310 312 316 316 314 313 313 314 313 313 314 315 315 316 315 315 316 316 314 313 312 312 311 311 310 310 310 310 311 311 312 313
306 307 308 310 313 313 314 316 315 315 314 313 313 313 313 312 312 313 314 313 313 314 315 316 315 314 315 316 315 316 316 316 317 317 317 316 316 314 313 314 314 314 315 316 315 316 317 318 318 317 318 319 318 318 319 318 313 312 315 315 314 314 314 314 313 313 313 314 315 315 314 315 314 314 313 313 313 312 312 312 311 311 310 310 311 311 311 312
304 306 306 308 310 311 312 313 314 314 314 314 314 313 314 314 313 312 312 312 312 312 313 314 313 313 315 315 315 315 315 315 316 316 316 316 316 313 312 313 314 313 315 314 313 314 314 315 316 317 318 318 317 317 319 318 315 313 315 314 313 314 314 313 313 314 314 314 314 314 314 314 314 314 314 313 313 313 312 312 312 312 311 311 310 311 311 312
303 304 306 308 309 310 311 312 313 313 313 313 313 313 313 314 313 312 312 312 312 312 312 312 312 313 314 314 314 315 314 314 314 315 315 316 316 313 311 311 311 312 313 312 312 312 312 313 315 315 315 316 316 316 316 316 314 314 315 314 313 314 313 313 313 313 313 314 314 314 315 314 314 314 313 313 313 313 313 313 312 312 312 311 311 311 311 312
301 302 304 306 307 308 310 310 310 311 312 312 312 312 313 313 313 313 312 311 311 311 312 312 312 313 313 313 314 314 314 315 314 314 313 312 311 311 311 311 310 310 311 311 310 311 311 313 315 315 314 314 314 315 315 315 315 315 315 314 314 315 314 314 314 313 313 314 314 314 314 314 314 314 313 313 313 313 313 312 312 312 312 311 311 310 310 310
300 300 302 303 303 304 305 305 305 307 308 309 309 310 311 312 312 312 312 312 311 311 311 312 312 311 309 309 309 310 311 312 311 310 309 306 305 307 309 310 310 309 308 309 310 309 311 313 313 314 314 314 314 314 314 314 314 314 314 314 314 314 315 314 314 314 313 313 313 313 314 314 314 313 313 313 312 313 312 312 312 312 311 311 311 311 309 309
298 299 300 300 300 300 300 300 301 303 304 306 308 309 309 310 311 310 310 310 311 311 311 311 308 306 305 304 305 306 307 305 304 304 304 302 302 304 305 306 308 306 304 308 309 308 310 312 313 313 314 313 314 314 313 313 314 313 313 313 313 314 314 314 314 314 313 314 313 313 313 313 312 312 312 312 312 312 312 311 311 311 312 312 311 310 308 307
295 297 298 298 299 299 299 300 301 302 303 305 307 308 309 309 308 306 306 306 307 309 309 306 303 302 303 303 304 304 303 301 300 301 301 301 301 302 302 302 304 303 304 307 308 308 309 310 311 313 313 313 314 314 313 312 312 312 312 313 313 314 313 314 314 313 314 314 314 313 314 313 312 312 312 312 312 312 311 311 311 311 310 309 307 305 304 303
294 295 296 298 298 298 298 299 300 301 301 302 303 305 306 305 303 302 304 305 305 304 303 300 300 301 302 302 303 302 300 299 299 299 299 300 300 300 301 301 302 303 305 306 307 307 308 309 310 311 312 313 313 313 312 312 312 313 313 313 313 313 313 313 313 313 313 313 313 314 314 313 311 311 311 311 311 311 311 309 308 307 305 303 301 300 300 300
Wind_Speed
5 5 5 5 4 4 4 4 5 5 5 5 6 6 6 7 7 7 7 8 8 8 9 9 9 9 10 10 11 11 12 12 13 15 17 13 10 11 10 9 7 6 5 4 2 1 2 3 4 4 4 4 3 4 4 6 7 3 2 2 3 3 4 5 7 4 2 4 4 5 9 8 5 7 8 8 11 15 15 17 17 17 20 23 23 21 18 14
6 5 5 5 4 4 4 4 4 4 4 5 5 5 5 6 6 6 7 8 8 8 9 9 9 9 10 10 10 12 13 13 15 16 16 13 13 14 12 11 9 8 7 5 3 2 3 3 4 4 5 5 4 4 4 6 8 6 3 2 5 5 5 6 6 5 2 5 6 6 10 10 9 8 6 5 9 12 11 15 17 18 21 24 26 25 23 21
6 6 6 5 5 4 4 4 4 4 4 4 5 5 5 5 6 6 6 7 7 8 9 9 9 10 10 10 11 12 13 14 16 15 10 7 8 10 13 14 11 10 8 7 5 3 3 4 3 3 6 6 5 6 5 5 8 7 4 2 7 8 6 9 11 13 11 9 7 7 8 10 13 11 5 5 9 10 11 15 14 19 26 26 27 27 26 24
7 7 7 6 6 5 5 5 4 5 4 5 5 5 5 5 5 6 6 7 7 8 8 9 9 10 10 11 12 11 13 14 11 6 1 2 6 7 7 11 12 10 9 8 7 5 5 5 4 4 6 6 6 7 6 8 7 5 6 5 7 5 4 13 17 18 15 10 8 8 5 8 13 12 9 7 7 9 15 21 19 21 25 25 27 28 28 27
8 8 8 7 7 7 7 6 6 6 6 6 6 6 7 6 6 6 7 7 8 8 9 9 10 11 11 12 11 11 11 8 3 1 1 5 12 13 7 6 10 11 11 10 9 9 7 6 6 5 6 6 5 4 6 12 11 4 8 13 12 6 4 14 16 15 14 10 10 8 6 11 12 10 14 12 8 15 21 21 20 20 19 19 22 24 27 29
10 10 9 9 9 8 8 8 8 8 8 8 7 8 8 9 9 8 9 9 9 9 9 9 10 11 11 12 12 11 7 3 7 9 10 14 15 12 7 5 8 11 12 12 11 11 9 9 8 7 6 4 5 6 6 12 13 6 8 13 18 14 11 19 20 17 16 12 11 10 12 14 10 10 15 17 22 32 34 26 24 22 17 15 18 21 25 27
11 11 11 11 10 10 10 10 10 10 10 10 9 10 10 11 11 11 11 11 12 12 11 11 11 12 12 12 12 11 8 9 13 12 11 12 11 10 7 6 6 10 13 13 14 13 12 11 11 9 4 2 4 8 8 9 11 9 7 7 16 19 18 24 22 20 18 15 16 15 14 13 10 11 12 21 38 44 39 32 30 27 20 17 19 23 25 27
13 13 13 13 13 12 12 12 12 12 12 12 12 12 12 12 13 13 13 13 14 14 14 14 13 14 13 13 13 11 11 13 12 9 9 10 10 10 8 7 7 10 12 14 15 14 14 13 13 10 4 4 6 6 6 6 6 9 9 8 12 15 19 23 20 20 20 19 20 15 16 18 16 14 13 30 50 47 38 33 32 31 26 24 26 28 29 30
13 14 13 14 14 14 14 14 14 14 14 14 14 14 13 14 14 15 15 15 15 15 16 15 15 16 14 15 14 11 13 13 9 9 11 12 13 11 10 10 8 10 12 15 16 15 16 15 15 12 8 7 7 7 5 3 4 8 11 11 10 13 19 22 21 23 22 21 18 10 17 22 18 13 16 39 51 42 35 30 29 30 31 32 33 34 34 35
15 15 15 15 15 16 16 16 17 17 16 16 16 16 15 16 16 16 17 16 17 17 17 16 16 16 15 16 11 7 14 14 11 14 15 15 15 13 13 12 11 11 12 16 17 18 18 15 13 11 10 8 6 7 5 5 6 6 9 11 14 16 21 23 21 25 21 18 17 11 16 22 14 4 12 39 41 26 24 20 19 21 27 31 32 35 35 36
16 16 16 17 17 17 18 18 19 19 19 19 18 18 18 18 18 19 19 18 18 19 19 18 17 16 16 17 13 12 18 18 16 19 18 17 16 15 15 14 14 14 14 16 18 19 18 16 12 8 6 5 5 6 6 8 8 8 8 10 17 14 19 25 19 21 16 11 17 14 13 17 6 5 18 40 35 20 20 20 19 20 25 28 29 31 32 35
17 16 16 17 17 18 18 19 20 20 21 21 20 21 20 20 21 21 21 21 20 20 20 19 18 17 16 19 23 22 23 21 20 21 19 18 18 18 17 16 16 15 15 17 18 19 17 16 15 11 8 5 3 3 4 6 5 8 6 6 14 8 14 25 17 17 11 6 12 8 6 11 4 12 31 39 34 26 25 28 30 29 31 32 32 32 33 35
18 18 18 18 18 18 19 19 19 20 21 21 21 21 20 21 21 22 22 22 21 21 21 20 19 18 15 20 28 26 23 22 22 21 20 21 21 20 20 19 18 16 16 17 17 18 17 17 16 14 13 8 4 4 6 6 6 8 3 0 9 7 9 16 5 6 7 4 8 8 2 10 7 21 35 35 32 28 25 31 36 34 35 34 33 34 35 36
19 19 19 19 19 20 20 20 21 21 21 21 21 20 20 20 20 22 22 21 21 21 21 19 18 16 14 21 29 26 24 24 24 23 22 21 22 22 22 20 19 18 17 16 17 17 16 16 15 13 13 12 10 9 8 6 4 4 2 0 3 3 8 9 3 4 4 4 12 11 2 11 12 20 30 29 28 23 22 31 34 34 36 35 34 34 35 36
18 19 20 20 20 21 21 22 22 23 23 23 22 22 21 21 21 21 21 20 20 20 20 18 17 14 12 21 27 23 22 24 24 22 20 20 21 22 21 19 18 17 16 16 17 17 15 13 12 10 9 11 11 7 4 4 3 1 2 4 2 3 8 12 7 7 8 5 12 10 3 10 14 22 29 27 23 19 21 29 32 32 34 35 36 35 35 35
17 17 18 19 20 21 22 23 23 24 25 25 24 23 23 22 22 21 21 21 19 19 18 15 16 13 8 15 21 19 22 24 23 22 21 21 21 21 20 17 16 16 15 15 15 14 13 10 9 7 6 8 6 2 3 4 5 2 4 6 5 5 4 8 9 7 11 5 7 8 6 7 11 21 26 18 17 18 19 26 30 31 33 33 35 35 36 37
13 14 15 16 17 19 20 21 22 24 25 26 26 25 24 23 23 22 21 20 19 17 15 12 11 11 10 14 19 23 26 23 21 20 20 20 20 21 20 17 15 14 13 13 13 10 9 9 7 5 5 5 2 5 3 3 6 4 3 5 6 6 3 3 8 6 6 6 6 10 9 11 13 19 24 17 15 15 16 24 28 30 32 32 32 34 37 40
10 11 12 13 14 16 17 18 19 21 22 23 24 24 24 22 22 22 21 19 17 12 10 10 8 4 10 16 18 22 21 16 15 13 15 17 19 19 18 17 14 12 10 8 8 8 9 7 6 1 3 4 2 5 4 8 9 7 5 5 4 5 5 6 8 4 3 5 8 8 10 15 17 18 26 28 25 20 20 26 30 31 32 33 33 35 40 43
9 9 9 11 12 13 14 15 16 17 19 19 19 20 20 18 17 17 17 16 13 7 5 11 14 6 7 11 12 14 14 15 14 14 16 18 18 18 17 14 12 12 9 5 5 10 11 4 4 2 4 8 7 8 12 14 13 10 7 5 4 6 6 7 11 7 4 6 8 9 13 15 17 18 23 30 31 27 29 29 30 33 35 37 39 41 46 48
8 8 8 9 10 12 13 14 15 16 17 17 16 16 13 9 7 7 9 13 16 15 13 14 18 17 14 13 13 14 17 19 18 18 19 18 17 16 16 13 9 10 7 6 5 8 11 5 3 7 11 13 10 11 16 15 11 8 5 6 7 8 9 9 13 11 6 6 8 12 17 17 17 18 19 26 27 23 25 26 28 33 34 38 41 44 48 49
8 7 7 8 9 10 11 13 14 14 15 16 16 14 7 3 2 5 8 12 18 22 24 22 21 24 23 20 19 18 18 17 18 20 18 17 17 13 14 13 7 5 6 7 4 3 7 7 8 15 16 12 9 11 14 12 9 8 6 8 9 7 12 13 13 13 5 5 9 11 16 18 17 16 17 20 18 17 23 23 28 33 32 35 40 44 48 49
8 8 7 7 8 9 10 12 12 12 14 15 15 12 8 6 6 9 9 11 19 23 25 27 27 30 31 29 28 26 20 16 17 22 19 18 20 14 11 11 6 4 5 6 2 1 4 6 14 19 13 7 5 6 8 9 8 8 6 6 8 6 11 12 11 13 5 4 8 10 14 16 14 15 16 16 16 22 31 31 34 36 30 32 38 43 48 49
10 9 9 8 7 9 10 11 10 11 14 13 13 12 10 10 8 10 9 7 15 21 24 28 30 32 34 33 34 31 26 20 18 21 23 22 22 17 12 11 6 3 5 7 8 6 5 8 16 18 9 5 7 5 5 6 5 6 6 5 8 6 7 9 6 8 4 3 7 9 12 12 10 13 12 18 26 28 34 37 38 39 33 36 42 44 47 49
12 11 11 10 10 10 11 11 8 11 14 11 13 13 12 11 9 11 10 5 8 14 22 28 27 29 33 30 28 30 29 24 18 17 24 27 22 14 11 10 5 3 7 12 13 13 10 8 11 12 8 9 10 8 6 5 7 8 9 8 11 11 11 12 6 6 5 4 5 7 12 11 9 14 12 16 24 24 29 32 33 39 40 41 45 46 49 52
15 14 14 13 12 12 12 10 8 11 11 9 13 13 12 11 9 11 10 5 5 8 13 17 18 21 26 23 19 21 19 19 20 18 20 27 25 12 6 9 7 6 11 12 10 12 12 8 6 7 7 11 10 8 7 7 9 9 8 13 18 16 13 13 9 8 6 6 4 2 9 9 7 12 12 9 11 12 17 19 23 36 40 38 42 48 50 51
16 16 16 16 15 14 13 10 8 11 9 9 13 13 11 9 8 10 7 3 4 5 3 6 8 8 11 13 15 13 5 9 19 22 19 22 27 18 5 6 7 6 8 7 5 5 6 9 10 8 9 10 8 7 8 10 9 9 7 14 17 13 10 10 7 4 3 6 3 4 2 10 5 6 9 8 9 11 12 11 17 29 34 33 40 46 47 47
18 18 18 19 18 16 14 11 10 10 8 9 13 13 10 7 7 8 5 3 4 3 4 5 6 4 4 8 16 14 2 4 8 15 20 20 24 21 9 5 5 4 5 4 4 3 4 7 9 9 9 7 7 8 9 12 8 7 4 9 10 8 8 6 5 5 4 4 4 4 5 8 12 6 10 12 12 12 12 13 16 22 29 34 39 43 44 44
18 19 19 20 20 19 17 16 14 9 7 8 11 12 8 5 5 5 3 3 4 3 3 4 5 3 3 10 19 13 1 1 3 6 15 18 19 15 9 7 6 4 4 5 6 5 4 6 9 10 7 5 8 10 9 12 8 6 3 6 7 6 5 5 5 4 1 5 5 4 6 3 14 8 10 12 12 10 13 17 17 17 25 34 39 43 43 42
19 19 19 20 21 23 21 20 16 10 7 6 9 10 6 3 4 5 3 3 3 2 2 3 4 2 2 9 15 10 1 2 1 3 8 12 15 9 3 5 5 3 3 5 8 6 1 3 6 8 7 7 9 6 8 14 9 4 6 5 4 3 3 5 3 2 3 6 6 5 6 2 13 8 5 5 6 9 12 15 14 16 24 33 37 41 41 41
20 19 18 18 21 24 24 22 18 12 8 6 7 7 4 2 2 3 3 5 1 1 1 2 3 1 3 5 4 6 2 2 2 4 5 5 10 6 1 0 2 2 4 4 7 9 4 1 2 5 6 6 5 2 3 8 6 3 7 4 6 5 4 4 1 4 2 9 6 9 11 6 7 6 4 4 5 8 10 9 10 13 20 30 36 39 38 37
20 20 19 19 21 22 23 23 19 12 9 7 6 5 1 0 3 2 7 2 1 1 1 1 1 2 4 3 1 3 2 2 1 5 3 2 4 2 2 1 1 1 3 5 7 8 5 2 1 5 7 5 5 3 2 2 3 5 4 3 4 4 4 5 4 4 1 9 5 10 12 9 8 6 2 5 6 5 7 9 10 11 16 27 33 34 33 33
21 21 21 22 23 21 22 22 18 14 12 9 7 3 2 2 1 6 6 4 2 3 1 2 1 1 2 2 1 3 2 2 3 5 4 3 3 3 3 4 4 1 4 5 4 5 4 7 6 2 6 9 5 2 2 5 3 5 4 4 1 4 3 3 3 1 4 9 5 7 8 6 11 7 4 9 10 7 8 10 14 13 16 25 27 26 28 31
22 22 23 25 26 24 24 22 18 16 16 13 8 0 5 2 4 6 3 2 2 2 1 1 1 2 4 3 3 4 2 3 4 3 2 3 2 3 4 5 5 2 4 3 2 4 4 6 4 3 4 10 10 5 3 2 3 6 5 6 5 3 2 3 4 2 5 7 4 4 5 5 8 4 8 14 13 10 11 16 22 21 20 23 22 23 26 30
23 23 25 26 27 27 24 21 18 16 16 14 7 4 4 4 5 1 3 5 4 2 1 2 2 2 3 2 4 3 2 4 4 4 2 3 2 3 4 5 5 2 1 1 2 2 4 8 5 7 3 9 13 12 9 4 5 7 5 5 6 5 5 4 4 6 6 5 5 1 5 5 3 3 8 11 8 8 9 17 23 23 23 23 22 24 27 31
20 21 23 24 25 26 24 22 19 17 17 12 5 4 4 7 4 1 3 4 3 4 4 3 3 1 2 3 3 3 6 5 2 4 3 3 3 4 4 5 8 5 3 2 3 3 5 10 6 3 2 10 13 13 9 7 2 4 4 4 5 6 6 4 5 6 3 2 4 3 5 5 4 6 8 7 9 9 8 11 12 16 24 26 27 29 30 34
19 19 20 21 24 24 22 22 19 19 18 12 5 2 8 6 3 3 3 2 1 1 4 5 1 2 3 3 3 4 5 4 1 2 3 3 4 5 5 4 8 11 9 6 3 3 4 7 3 1 1 6 7 6 7 7 4 2 4 4 4 4 6 4 6 1 2 4 6 3 6 6 4 8 6 3 7 8 7 8 8 16 26 27 28 32 34 37
19 19 20 22 21 17 18 19 19 21 20 14 5 6 6 3 5 5 2 1 1 1 2 2 1 1 2 2 2 3 2 2 2 2 2 2 3 4 5 4 7 14 16 11 4 4 6 8 5 5 6 5 1 2 1 1 3 5 4 6 2 3 2 3 2 1 2 9 6 5 12 9 4 8 5 4 5 7 8 9 8 13 18 19 24 32 36 36
19 19 22 24 20 16 16 15 17 23 19 10 8 10 5 3 6 6 3 1 1 1 2 2 3 1 1 3 3 2 1 2 1 0 1 2 3 4 4 3 3 5 11 11 4 3 4 7 6 4 4 2 3 2 3 4 3 5 3 2 3 1 2 3 3 3 7 10 6 8 16 11 6 7 5 5 8 9 9 7 6 8 10 15 23 31 34 34
17 15 18 19 15 15 17 16 21 25 15 5 9 10 4 3 6 8 7 4 2 1 2 5 4 2 3 4 3 1 1 2 1 1 1 2 3 0 3 2 1 5 5 2 3 3 1 3 5 1 1 2 3 0 4 2 1 1 2 2 1 3 4 4 3 3 6 9 8 9 12 9 7 6 5 8 9 8 8 6 6 7 8 13 19 24 29 31
13 9 11 11 7 9 14 18 24 22 9 3 8 7 2 2 5 10 12 9 4 3 4 5 5 5 4 4 3 2 2 3 3 2 2 3 4 4 3 2 2 2 5 4 3 3 2 4 6 3 3 3 1 3 5 5 3 2 3 3 2 2 1 1 2 2 4 8 8 8 9 8 7 4 6 8 7 6 5 4 6 8 12 19 24 26 28 29
10 7 8 9 9 11 19 20 16 11 4 4 6 4 3 3 4 8 14 16 11 8 5 4 5 6 4 3 3 3 2 2 4 5 3 4 4 3 1 3 4 0 4 4 1 2 1 3 5 4 4 5 5 4 5 7 6 5 6 6 7 6 3 4 7 4 3 5 6 7 8 7 6 5 5 5 4 4 2 4 6 9 16 23 30 30 28 33
11 7 7 10 13 18 22 16 7 6 4 5 6 6 5 5 5 6 11 14 11 7 5 4 5 5 4 5 5 5 4 4 5 5 4 6 8 6 7 8 6 2 1 1 1 0 2 1 3 6 6 8 10 7 5 7 6 3 4 5 5 6 6 7 9 5 3 4 3 6 8 5 5 12 11 7 7 7 8 8 8 13 21 26 29 31 33 38
13 11 10 9 13 21 19 7 5 7 4 4 6 6 7 6 4 5 7 9 7 5 4 4 6 7 6 6 7 6 5 6 7 8 7 7 9 15 20 24 20 7 2 2 2 3 4 2 3 5 4 6 10 10 5 3 2 3 4 4 5 4 6 7 6 3 3 5 4 7 10 6 5 13 17 14 15 15 15 17 16 18 26 30 31 35 38 38
10 14 14 11 14 21 16 4 5 7 5 6 4 5 8 7 6 8 7 7 8 5 4 5 7 9 8 7 8 8 7 7 8 10 10 6 8 18 27 31 26 11 5 7 6 7 6 2 2 2 4 6 5 6 5 3 3 3 4 4 5 5 6 5 2 2 4 8 9 10 10 8 7 12 15 19 22 21 21 27 26 22 27 33 35 37 39 39
5 9 14 16 20 24 19 11 9 6 5 9 8 7 8 6 9 17 14 8 10 8 4 4 6 7 8 7 7 8 9 9 8 7 8 6 5 11 20 27 25 15 13 16 12 10 6 5 5 5 7 9 8 6 4 3 2 2 2 5 7 8 10 8 5 5 7 9 12 11 10 11 12 13 17 22 26 25 25 29 26 22 26 33 34 36 37 36
3 4 7 11 19 24 23 21 16 6 4 8 7 7 11 9 9 15 14 9 12 12 7 6 6 4 5 7 8 9 9 10 10 6 4 5 4 4 12 21 23 21 23 21 14 9 2 3 9 12 13 12 12 11 6 5 5 6 8 11 12 12 13 11 9 10 11 12 13 12 14 17 17 15 20 24 25 25 26 25 21 20 25 29 29 32 33 34
3 3 2 3 10 15 17 18 15 8 5 7 4 4 10 11 7 8 10 9 12 13 9 7 9 8 6 8 9 9 10 11 12 11 10 9 6 5 9 13 14 18 21 14 14 10 1 3 10 15 17 15 15 17 16 13 15 16 16 18 17 17 16 14 14 15 14 13 13 14 16 19 17 17 22 25 24 24 24 22 22 23 25 26 27 30 32 36
5 4 4 2 3 6 7 8 8 6 6 7 5 5 10 13 9 6 6 6 8 10 6 5 10 14 13 11 9 8 10 12 11 10 9 7 6 7 8 7 7 12 11 7 11 9 2 5 10 13 17 18 17 20 21 19 19 18 18 20 21 21 20 19 20 20 17 16 16 16 19 21 18 17 21 24 24 22 22 26 32 34 33 31 30 30 31 33
7 5 7 5 3 5 5 4 4 3 3 4 3 5 9 12 12 7 2 2 4 6 8 7 7 8 7 4 2 4 6 6 5 4 2 4 6 4 5 6 5 5 3 2 5 5 3 5 10 14 17 17 18 20 20 21 21 19 20 21 20 21 23 23 23 23 22 23 23 23 26 25 19 16 19 25 28 26 27 32 37 38 39 39 37 30 25 25
7 4 5 6 5 8 8 5 3 3 3 4 5 5 5 7 8 4 1 2 2 2 6 6 3 3 2 2 1 2 2 2 1 3 3 6 6 3 3 4 5 8 8 4 2 4 5 5 8 12 14 15 18 20 20 20 21 21 22 21 20 22 24 24 23 20 20 24 26 27 27 22 16 17 20 25 31 31 27 28 32 38 45 45 37 25 17 17
10 8 7 7 5 5 6 3 2 2 3 4 5 3 3 5 4 2 1 4 6 3 1 2 5 5 3 3 2 1 1 1 3 7 6 5 7 6 5 5 6 9 9 5 3 3 3 3 5 8 9 9 12 16 18 18 19 22 22 22 23 24 22 21 21 20 21 23 23 22 20 15 14 18 21 23 26 25 23 25 31 36 35 27 21 21 22 23
11 10 9 6 5 5 4 2 1 3 4 4 2 2 3 4 3 4 2 4 3 5 6 8 6 5 4 5 5 3 5 8 10 13 14 14 17 18 16 16 14 10 6 5 5 4 3 4 4 6 7 7 8 13 16 14 15 15 17 22 26 25 23 22 21 21 21 20 17 16 15 13 11 12 13 15 15 15 16 16 16 17 19 21 23 24 24 26
Wind_Direction
324 330 331 336 344 349 356 3 8 13 18 21 24 26 25 26 27 26 26 22 18 14 8 1 350 338 330 322 316 310 307 303 297 288 283 286 279 269 269 271 269 273 289 288 292 276 181 146 173 199 214 225 240 246 225 219 208 196 118 146 242 206 207 202 193 214 178 253 273 235 230 212 247 263 247 260 249 246 246 239 235 231 233 241 248 252 255 250
313 315 315 321 324 330 339 343 351 356 1 6 12 15 16 20 18 19 19 17 15 12 9 4 358 351 344 336 325 313 308 305 299 291 289 285 269 262 262 264 266 269 276 271 269 254 215 187 184 197 215 230 238 234 221 213 199 188 141 159 229 204 216 213 206 241 246 268 270 253 242 221 240 265 253 255 253 247 247 245 237 233 236 240 246 248 253 252
300 302 304 306 307 313 315 320 330 333 342 346 349 355 360 2 2 7 5 4 4 2 2 358 356 352 347 344 336 325 316 310 301 296 294 289 274 263 255 251 253 259 259 254 253 247 235 220 208 209 220 231 232 224 214 199 199 205 184 206 242 217 238 258 254 264 273 276 271 266 251 229 247 260 244 243 267 262 241 242 231 234 244 244 245 246 248 250
290 291 291 293 295 296 297 302 305 309 319 321 327 332 333 340 341 343 343 346 345 346 348 346 346 344 343 343 339 332 326 318 302 286 184 73 3 331 280 250 241 242 244 243 240 238 235 219 223 225 218 230 229 225 218 203 202 201 183 206 240 201 230 262 262 267 273 277 271 269 258 252 263 258 241 245 285 274 247 248 242 244 258 256 249 248 247 246
288 287 286 286 286 286 287 288 288 292 297 301 307 310 315 319 319 323 324 326 326 329 333 333 334 332 333 336 333 330 337 338 313 317 239 317 331 332 328 269 236 229 234 235 232 232 232 222 222 214 214 230 212 207 230 216 203 191 216 228 240 213 227 265 268 275 277 275 270 268 267 274 275 252 243 239 239 261 263 267 265 259 266 265 257 252 247 245
287 287 286 285 284 284 283 282 281 282 284 288 293 297 302 304 306 310 309 312 313 314 318 320 323 322 324 327 323 321 328 309 308 317 303 304 314 317 325 294 245 231 232 231 232 231 230 225 217 209 211 231 200 197 238 225 207 226 251 238 248 244 245 267 270 274 278 273 267 268 273 275 274 267 260 243 244 263 273 274 274 274 272 263 257 251 247 245
286 286 287 286 286 284 282 281 280 279 279 281 283 286 291 294 297 299 300 304 305 307 311 312 314 313 317 317 313 308 280 277 305 312 307 313 318 316 314 299 265 241 233 230 232 229 231 225 217 218 210 252 229 216 248 244 209 223 261 249 257 254 250 265 271 273 276 273 271 275 276 268 258 273 278 263 265 272 275 272 269 270 267 254 249 250 251 253
285 285 286 287 287 286 284 282 280 279 278 278 280 281 283 286 288 290 292 294 297 300 302 307 310 310 313 311 309 300 273 286 306 306 311 320 317 316 309 295 275 253 241 236 235 233 236 230 224 226 215 241 236 227 252 270 218 210 247 257 259 260 259 269 276 276 277 276 279 279 270 261 256 270 281 273 276 279 277 274 270 263 258 252 251 254 255 256
286 286 287 288 287 287 285 284 283 280 279 278 279 279 280 282 283 284 285 287 290 292 294 300 302 304 308 303 303 296 282 294 305 297 307 310 305 303 295 287 275 260 249 241 237 234 235 233 235 234 237 248 240 242 235 247 238 209 237 258 267 272 275 280 279 277 279 279 280 272 267 269 265 273 277 272 276 283 281 278 274 264 256 254 254 255 255 256
286 286 288 288 287 287 286 285 285 284 282 282 281 281 282 281 281 282 282 283 285 287 289 291 294 298 298 294 288 273 284 294 298 300 304 301 297 291 284 279 270 263 253 243 237 235 236 237 242 236 245 258 243 242 216 211 249 248 262 276 278 281 285 283 277 277 280 279 270 241 262 274 265 238 265 273 278 285 287 284 278 265 259 259 256 256 257 256
288 288 287 286 287 286 286 286 286 286 285 284 285 285 285 285 284 284 283 283 283 285 286 286 290 290 290 286 257 248 281 291 293 296 296 293 289 282 277 271 266 264 254 247 241 241 242 239 238 227 237 257 248 252 240 239 260 284 306 306 288 293 295 282 271 275 276 278 265 230 253 275 256 178 246 268 276 278 282 284 278 269 268 268 263 261 259 258
293 293 292 290 289 288 287 287 286 286 285 285 286 285 286 286 285 285 285 285 284 284 284 284 285 283 285 277 259 263 283 287 288 290 288 287 283 275 271 264 262 260 255 253 247 245 243 237 233 226 232 246 274 293 254 258 292 299 320 321 293 321 307 282 271 268 253 256 262 207 259 279 200 221 248 266 274 270 275 278 277 274 273 274 270 267 263 262
295 296 296 294 293 292 290 290 288 287 286 285 285 284 284 283 283 283 282 283 284 283 284 282 280 280 275 268 270 278 285 284 283 283 282 281 277 272 267 263 260 256 254 252 248 245 240 236 231 228 240 246 257 273 271 294 317 299 316 334 292 337 304 279 280 251 228 223 228 158 243 275 232 237 252 270 273 267 272 275 278 279 277 275 272 269 266 266
293 294 294 294 294 294 293 292 291 290 288 287 285 284 283 281 280 279 279 281 281 280 281 280 277 272 259 266 278 283 282 282 280 279 280 276 273 270 266 263 262 258 255 249 244 242 236 233 230 232 243 246 255 272 291 319 318 287 304 217 282 304 270 283 36 147 208 224 190 160 221 264 265 256 258 272 272 265 266 270 277 278 277 276 272 270 268 267
292 293 294 294 295 294 294 294 293 292 291 289 288 287 285 284 282 280 280 278 277 277 277 274 269 260 250 267 277 280 278 278 279 281 278 271 267 266 264 263 261 258 253 245 240 237 233 227 224 229 241 250 257 271 317 340 333 2 242 271 256 210 260 299 313 192 214 236 175 164 232 256 268 269 266 271 269 262 256 263 271 272 273 273 272 271 269 268
296 296 296 297 298 297 297 297 296 294 293 292 291 290 288 287 284 283 282 279 277 275 271 267 260 246 239 270 274 273 274 274 280 281 271 265 262 259 260 260 256 252 245 240 238 234 231 223 219 225 233 250 237 163 35 347 315 329 205 245 248 220 257 308 303 227 209 207 176 198 233 252 264 271 272 269 262 255 246 258 266 267 270 269 269 271 270 270
303 303 304 305 304 303 303 301 299 297 295 294 293 291 289 288 285 284 283 280 276 268 261 254 247 236 237 263 268 269 273 277 280 276 267 265 260 256 255 251 247 241 235 231 233 225 216 204 194 218 236 243 164 110 57 282 265 278 202 234 245 229 220 266 297 285 197 177 208 226 229 243 253 266 272 263 258 257 244 257 265 266 268 266 267 269 269 271
316 317 318 318 316 314 312 309 307 302 299 299 298 295 293 290 286 282 279 275 269 259 247 220 194 217 248 248 258 269 274 276 274 271 267 259 249 249 245 242 239 225 214 213 215 191 188 189 166 175 278 240 173 129 186 232 235 236 214 230 253 239 229 237 268 281 166 204 224 227 235 245 254 266 269 264 264 265 257 260 265 267 267 266 266 266 268 271
326 329 332 331 329 328 326 323 319 312 308 305 304 303 300 295 287 279 271 260 241 222 231 205 190 205 250 244 254 266 269 269 268 263 259 249 238 236 230 230 223 200 182 171 195 181 172 144 107 155 242 231 210 176 207 228 230 233 230 230 241 246 244 239 254 246 201 249 237 229 244 246 252 259 263 265 264 265 265 264 265 266 266 266 266 265 267 270
331 335 339 340 338 337 336 334 330 324 319 313 311 312 305 300 293 279 261 244 235 237 249 230 218 232 247 256 262 263 264 265 261 253 249 241 229 223 217 210 191 186 177 154 188 191 173 153 154 202 221 225 214 199 218 234 242 254 257 252 247 252 264 254 262 263 200 229 243 231 247 249 249 254 257 263 265 265 266 266 263 261 261 262 264 265 267 268
333 334 340 344 343 344 343 341 339 335 333 328 326 329 324 318 309 292 285 268 260 256 256 253 244 245 250 253 253 256 261 260 254 247 241 231 217 210 206 192 161 186 198 163 157 170 169 181 210 218 223 224 216 208 224 239 248 255 249 261 263 251 264 257 261 272 214 201 254 242 253 257 250 254 258 260 263 261 260 261 262 260 258 258 261 264 267 269
326 326 335 343 346 349 350 350 345 341 344 339 335 343 346 332 299 286 297 286 275 268 262 261 255 249 251 250 246 249 255 255 249 239 229 217 207 204 193 177 176 191 167 158 162 185 188 213 225 225 227 230 232 206 219 239 237 243 242 263 270 250 271 267 251 265 241 180 257 255 257 260 254 254 257 258 256 256 258 257 259 261 259 256 258 262 266 269
314 316 320 325 338 342 347 353 349 344 347 344 344 350 347 335 317 305 308 284 278 275 265 261 254 250 251 250 244 241 241 243 243 237 229 215 200 201 191 171 183 167 142 185 204 208 214 228 230 229 221 217 245 226 214 261 246 219 221 246 262 246 263 268 245 264 259 199 257 268 265 263 260 262 258 253 252 254 259 258 259 262 258 256 258 260 264 267
304 308 309 313 322 325 335 346 348 346 345 351 355 349 344 336 330 332 322 279 277 274 264 260 254 251 250 250 244 235 233 235 238 238 230 214 194 193 203 183 164 161 193 208 212 225 237 235 224 217 199 203 232 235 215 260 259 222 205 220 251 246 242 253 274 313 296 262 263 277 283 272 237 248 254 248 250 253 257 258 260 260 257 257 260 261 261 263
298 301 304 307 311 315 324 331 340 347 345 355 354 344 347 344 335 344 336 301 280 271 265 257 248 248 246 246 241 228 228 234 236 237 230 217 204 196 200 183 177 210 217 217 225 243 249 242 206 176 189 204 215 229 208 214 254 252 204 210 238 246 247 256 284 324 313 286 277 258 291 285 201 219 244 248 250 251 251 253 254 256 256 254 256 260 260 261
291 294 299 301 304 309 314 319 330 344 346 349 351 348 350 354 352 346 343 333 287 260 232 220 221 234 232 232 221 201 217 253 238 232 228 225 217 210 199 173 191 228 207 204 239 253 244 227 202 178 192 199 199 233 215 195 240 273 217 208 231 244 253 255 268 298 268 267 276 120 263 283 253 205 229 238 241 245 248 248 248 252 254 250 249 255 259 261
281 285 291 293 297 299 301 306 312 331 345 343 349 350 345 359 10 355 358 347 284 216 161 187 188 188 205 201 186 169 171 253 218 214 210 211 212 208 214 191 189 227 166 140 270 243 191 206 207 199 195 181 185 232 219 183 212 268 216 190 209 228 238 222 203 218 238 285 285 149 148 271 279 238 199 215 226 237 246 249 250 250 250 250 248 251 254 259
273 277 283 286 290 292 292 294 298 313 328 331 345 347 347 2 2 12 39 307 277 148 138 194 174 196 215 178 180 177 150 165 144 191 195 196 198 198 225 218 183 214 162 149 242 240 153 185 210 198 185 187 204 223 196 164 200 251 158 151 168 188 199 153 156 207 290 337 289 201 136 259 283 258 181 206 221 225 238 241 246 247 246 248 250 252 253 257
264 266 272 278 283 286 286 287 291 298 299 312 337 340 347 343 347 41 85 262 286 96 136 188 175 219 167 160 193 215 327 50 78 171 176 189 195 185 239 231 190 244 242 195 234 257 168 181 196 171 170 214 218 219 171 167 205 226 119 101 78 86 82 94 128 129 45 306 266 200 150 213 285 284 143 178 215 218 232 236 242 244 243 247 250 254 257 259
257 256 259 262 269 277 280 281 283 285 284 291 318 333 336 289 24 60 234 246 311 341 144 170 206 206 118 135 223 257 256 346 47 135 144 171 194 189 79 193 177 222 280 279 257 259 248 111 109 174 196 207 186 152 158 174 190 119 98 63 33 24 32 55 40 77 53 278 246 182 176 176 274 293 125 168 216 215 221 229 247 251 248 250 252 256 260 261
256 255 253 251 256 267 272 275 278 277 270 271 299 328 349 52 73 163 236 258 10 284 117 185 267 76 120 140 254 270 226 286 132 149 168 143 173 191 107 118 121 79 323 299 276 271 255 200 201 212 193 150 108 101 22 36 103 102 95 74 27 333 5 29 354 57 196 261 234 184 182 176 232 262 188 241 262 228 212 219 232 242 247 249 252 257 262 261
256 254 257 256 256 259 261 267 273 270 266 270 285 309 101 73 281 219 243 3 351 237 151 192 215 132 165 129 262 238 176 253 203 160 179 161 157 189 198 203 172 71 296 254 268 303 270 224 211 193 185 170 142 119 346 356 61 111 115 119 85 302 341 357 308 97 221 256 244 186 176 201 240 247 244 266 271 232 207 217 227 229 236 243 250 257 261 262
256 253 255 256 257 259 261 266 267 263 267 265 256 184 95 133 240 222 233 316 238 215 121 153 143 133 135 109 255 226 164 235 206 174 190 138 156 234 259 232 172 185 262 227 301 324 299 269 187 139 234 192 166 169 225 268 170 160 155 153 170 212 228 258 266 271 262 267 269 180 169 247 276 268 225 237 252 239 211 219 230 231 234 243 253 260 263 266
254 253 254 253 256 258 261 264 258 255 262 252 214 105 97 222 244 214 203 231 263 321 27 90 84 114 145 190 239 200 195 246 181 158 185 119 146 252 260 238 198 177 241 226 311 204 258 286 198 162 220 181 178 204 202 150 160 187 162 146 181 186 177 201 227 250 261 281 301 222 180 225 271 283 228 224 261 274 233 230 238 243 247 254 261 261 262 264
254 254 253 254 254 252 253 253 249 251 250 227 161 116 196 226 242 239 213 232 291 310 300 345 77 132 256 261 266 218 215 245 152 137 178 165 184 212 201 208 197 172 143 213 256 172 221 269 242 178 159 159 182 215 185 118 133 221 122 120 219 200 177 207 237 229 217 296 288 236 219 234 239 263 256 247 268 272 258 260 269 264 259 260 261 257 256 258
261 257 254 254 251 249 250 246 246 250 231 188 128 207 220 224 210 185 214 220 172 350 324 329 60 190 270 269 285 266 217 224 191 149 201 196 204 213 205 206 192 182 180 192 219 200 234 270 271 37 251 186 192 219 180 160 193 187 130 184 220 162 159 216 264 262 112 260 262 226 246 276 304 280 268 251 256 262 275 276 266 259 256 256 258 256 254 257
266 263 262 258 253 253 249 241 243 239 210 172 178 229 214 228 200 185 212 218 166 63 34 328 280 218 270 263 285 298 278 250 202 177 217 216 225 207 198 229 202 191 201 209 227 234 238 268 254 195 227 247 314 357 314 206 140 125 175 210 163 75 130 173 241 333 249 252 258 257 261 272 296 281 302 11 315 284 272 256 246 260 264 262 263 261 260 264
268 271 270 264 258 251 240 235 232 219 192 165 229 233 208 213 200 194 222 243 258 47 110 222 262 301 272 276 299 327 311 278 156 153 250 249 247 178 158 234 213 186 224 230 258 279 229 259 262 205 216 281 34 31 305 336 78 133 209 224 114 149 232 164 177 208 231 244 251 260 268 269 241 247 277 298 288 280 272 270 269 270 267 261 261 264 267 270
266 275 275 270 262 245 231 222 211 202 183 167 233 230 205 194 202 199 205 209 172 129 192 219 226 256 248 242 258 281 239 238 256 348 304 246 271 269 65 332 59 28 345 230 232 308 358 255 264 32 4 326 20 196 213 245 347 52 296 322 71 187 194 183 185 173 217 243 249 249 262 267 243 225 228 242 250 253 263 291 293 273 275 276 273 276 278 277
258 261 267 258 240 222 208 200 197 191 181 224 225 222 189 191 226 215 208 205 180 182 219 214 207 230 241 235 242 234 230 233 216 208 201 230 284 317 3 29 141 337 7 96 181 294 6 259 262 327 339 293 243 212 198 200 206 196 228 243 246 236 178 244 243 157 200 238 247 246 248 259 263 219 199 230 235 218 235 296 305 298 311 310 303 300 298 297
234 239 258 228 204 201 186 182 190 189 199 251 232 233 227 219 233 219 215 218 219 221 216 191 202 212 209 229 225 187 195 217 192 195 208 227 256 269 221 138 137 50 17 71 72 328 349 270 276 289 279 259 250 226 198 211 210 191 207 215 216 224 233 267 251 209 199 234 241 252 252 259 282 265 207 216 235 225 264 300 289 290 299 298 293 292 297 298
209 227 249 208 202 203 184 174 195 204 206 231 230 228 218 221 230 213 211 212 213 221 213 203 217 207 196 224 224 200 200 213 201 204 214 212 212 211 217 225 213 155 59 279 270 202 151 212 281 266 253 257 276 277 220 220 239 239 231 222 223 227 218 237 246 229 225 256 255 267 263 252 275 276 272 268 265 273 290 285 276 280 283 283 283 285 288 287
211 230 237 214 216 209 191 182 225 209 215 241 235 228 215 215 228 220 212 204 201 209 208 210 214 215 220 221 220 217 208 214 210 207 218 220 214 219 229 239 241 225 141 220 230 166 157 147 244 263 284 274 281 291 269 190 187 245 248 219 212 228 225 232 251 254 251 265 269 268 265 251 254 273 279 282 278 279 281 275 273 278 281 281 281 283 284 281
232 245 242 233 227 212 198 200 220 209 229 238 235 239 231 227 224 227 220 191 191 194 198 214 209 216 228 217 215 217 203 217 224 213 218 217 215 227 231 237 242 236 195 204 189 176 190 173 154 227 287 279 281 298 277 231 186 212 237 231 220 234 256 267 298 298 251 242 240 250 261 257 250 265 277 282 281 279 275 271 270 273 278 280 278 278 278 277
257 256 243 230 219 212 211 224 229 222 220 225 236 237 235 241 230 233 237 219 207 202 198 233 218 213 220 211 224 227 207 221 239 223 217 219 235 240 233 235 238 234 235 229 192 170 206 200 171 210 243 251 255 253 233 217 212 216 242 249 237 231 243 255 258 255 251 238 234 242 254 256 253 259 269 274 275 277 275 273 272 271 272 273 272 271 271 271
262 259 246 227 218 219 225 231 233 236 209 221 236 223 227 242 239 235 236 230 229 227 230 249 240 239 230 211 230 242 226 231 240 231 224 228 247 249 227 231 231 228 241 237 191 161 236 211 203 226 232 236 249 247 225 195 215 233 234 234 234 231 234 242 245 246 253 253 246 238 242 252 255 257 263 266 269 275 277 277 278 278 272 268 267 267 268 269
254 257 232 218 226 230 236 236 232 229 217 219 219 213 230 239 246 239 225 221 229 225 228 245 232 231 233 220 231 243 236 236 235 235 242 237 242 262 244 236 231 231 243 233 181 168 291 230 215 232 236 236 246 250 249 244 240 241 241 238 239 238 235 239 244 248 255 261 256 241 238 249 252 251 257 262 265 267 272 279 284 283 276 272 272 271 270 272
227 267 257 248 241 233 237 243 243 239 231 229 231 243 244 239 233 227 219 235 234 211 209 250 230 226 237 241 245 249 243 240 239 241 248 256 283 299 281 269 253 244 245 212 179 178 209 238 228 237 242 240 242 247 250 252 250 246 244 243 244 243 243 243 245 246 246 249 255 252 247 249 247 242 249 256 259 261 267 277 282 283 282 279 275 272 272 274
233 273 275 277 274 264 279 315 329 309 257 250 250 238 246 247 242 231 200 272 267 215 214 235 234 234 254 268 275 282 269 255 258 271 333 346 326 318 309 300 293 291 295 221 198 194 191 224 229 241 251 248 244 245 245 247 251 250 246 244 244 246 248 248 248 248 247 249 255 255 253 252 249 244 246 251 257 264 269 274 278 282 282 279 277 277 279 282
247 264 294 307 289 277 288 296 309 317 281 254 244 228 230 241 248 256 160 184 259 246 221 235 311 349 353 47 78 279 295 90 105 296 344 353 335 343 348 315 329 343 331 304 254 223 212 217 225 240 255 251 246 246 242 239 243 247 246 244 243 246 248 250 253 252 251 252 252 252 254 255 254 253 253 254 259 264 268 269 271 272 275 279 287 303 324 331
255 265 292 307 288 274 288 291 284 293 266 234 228 230 225 225 245 323 345 242 247 249 177 32 11 4 342 316 301 254 10 78 237 257 260 268 277 279 279 273 297 321 314 292 289 269 239 251 251 254 261 249 238 242 244 245 245 245 246 246 244 243 243 245 246 244 246 252 254 255 257 255 251 252 253 255 257 259 261 265 269 273 283 301 333 3 17 13
262 267 267 266 267 267 272 312 333 256 250 247 250 292 262 257 344 29 325 270 197 127 70 41 12 348 335 312 309 338 335 308 284 280 274 259 253 253 249 245 246 256 271 285 289 261 242 275 277 265 267 256 237 240 246 251 249 243 239 238 238 241 243 243 244 246 249 252 255 256 256 263 273 276 278 279 276 274 277 285 300 319 343 8 22 23 17 8